Weather in Morlaix

France     48°34′38″N   3°49′36″W
temp.,
°C
wind,
m/s
gust,
m/s
humid.,
%
clouds,
%
prec.,
mm/h
press.,
hPa
HPBL,
m
21 may, sat
sat2123:00+10sw249712 0.0 102495
02:00+10sw2298100 0.0 102439
05:00+10sw119992 0.0 102419
08:00+11wsw1395100 0.0 1023100
11:00+16nw226029 0.0 1023792
14:00+20nw22465 0.0 10221301
17:00+19n325418 0.0 10211035
20:00+16nne456858 0.0 1020389
22 may, sun
sun2223:00+11ne2386100 0.0 102055
02:00+9ene2281100 0.0 101932
05:00+9ese258097 0.0 101889
08:00+12ne2571100 0.0 1015150
11:00+16ene2364100 0.0 1014283
14:00+19ene1162100 0.0 1012409
17:00+19nne3265100 0.0 1010604
20:00+16nne3580100 0.1 1010296
23 may, mon
mon2323:00+12nnw367999 0.0 1010196
02:00+10n2493100 0.6 1009139
05:00+10w249497 2.5 1008103
08:00+12nw3897100 2.5 1007491
11:00+14wnw4680100 0.3 1007838
14:00+14wnw477499 1.1 10061084
17:00+13wnw477439 0.5 1006840
20:00+12wnw58815 1.3 1007874
24 may, tue
tue2423:00+8wsw39940 0.0 1009352
02:00+8wsw31093100 0.0 1009385
05:00+8wsw3993100 0.0 1008322
08:00+10wsw3888100 0.1 1009491
11:00+12w4681100 0.6 1010852
14:00+14nw457293 2.1 10101234
17:00+15nw565711 0.8 10111528
20:00+13wnw46682 0.8 10131030
25 may, wed
wed2523:00+8w27932 0.0 1015156
02:00+7sw2797100 0.0 1016153
05:00+7ssw249796 0.0 101667
08:00+11sw41090100 0.0 1016698
11:00+12wsw41087100 0.1 1017788
14:00+14w51092100 0.2 1017827
17:00+15wnw696959 0.3 10181285
20:00+14nw58724 0.3 1020960